Find Starlink 5910

NORAD ID: 56000 Int'l Des: 2023-042 Owner: SPXS Country: US Constellation: starlink operational
LEOCIRCULAR

实时位置

正在加载3D地球...

关于 Starlink 5910

正在加载描述...

即将过境

Passes for default location (London). Set your location on the main map for personalized predictions.

高度历史

Loading altitude history...

两行轨道根数

1 56000U 23042Q 26125.07546453 .00000328 00000-0 21448-4 0 9998
2 56000 43.0031 101.0948 0001318 258.2013 101.8690 15.27576382171494
Epoch: May 5, 2026 • Age: 12 hours

当前状态

高度 488.1 km
速度 7.62 km/s
星下点 -22.87°S, 5.24°W
发射日期 Mar 24, 2023
运行时间 3.1 years
类型 internet

技术详情

分类 Payload
质量 305.00 kg
干质量 290.00 kg
总质量 305.00 kg
长度 0.20 m
直径 2.80 m
跨度 9.00 m
形状 Box + pan
制造商 SPXS
平台类型 Starlink
阶段状态 In Orbit
所有者/国家 SPXS/US

Most Searched